Weather History for Orangeburg, SC

Change the Weather History Date:

Wednesday, November 12, 2014

  Actual Average Record
Temperature  
Mean Temperature 62 °F 57 °F  
Max Temperature 80 °F 69 °F 85 °F (1989)
Min Temperature 43 °F 45 °F 25 °F (1973)
Degree Days  
Heating Degree Days 3 8  
Month to date heating degree days 119 85  
Since 1 July heating degree days 183 175  
Cooling Degree Days 0 1  
Month to date cooling degree days 5 12  
Year to date cooling degree days 2248 2099  
Growing Degree Days 11 (Base 50)    
Moisture  
Dew Point 51 °F    
Average Humidity 85    
Maximum Humidity 93    
Minimum Humidity 57    
Precipitation  
Precipitation 0.00 in 0.09 in 1.97 in (1985)
Month to date precipitation 0.13 1.11  
Year to date precipitation 40.71 41.60  
Sea Level Pressure  
Sea Level Pressure 29.98 in    
Wind  
Wind Speed 1 mph (WNW)    
Max Wind Speed 8 mph    
Max Gust Speed 11 mph    
Visibility 5 miles    
Events Rain    
T = Trace of Precipitation, MM = Missing Value Source: NWS Daily Summary

Daily Weather History Graph

Daily Weather History Graph

Search for Another Location

Airport:

Trip Planner

Search our weather history database for the weather conditions in past years. The results will help you decide how hot, cold, wet, or windy it might be!

Date:

Astronomy

Nov. 12, 2014 Rise Set
Actual Time 6:52 AM EST 5:22 PM EST
Civil Twilight 6:25 AM EST 5:48 PM EST
Nautical Twilight 5:55 AM EST 6:18 PM EST
Astronomical Twilight 5:26 AM EST 6:48 PM EST
Moon 10:39 PM EST (11/12) 11:38 AM EST (11/12)
Length of Visible Light 11h 23m
Length of Day
10h 30m
Waning Gibbous, 68% of the Moon is Illuminated
Nov 12
Waning Gibbous
Nov 14
Last Quarter
Nov 22
New
Nov 29
First Quarter
Dec 6
Full

Hourly Weather History & Observations

Time (EST) Temp. Windchill Dew Point Humidity Pressure Visibility Wind Dir Wind Speed Gust Speed Precip Events Conditions
12:53 AM 55.9 °F - 51.1 °F 84% 29.94 in 10.0 mi NNW 4.6 mph - N/A   Clear
1:53 AM 52.0 °F - 48.9 °F 89% 29.94 in 10.0 mi NW 3.5 mph - N/A   Clear
2:17 AM 50.0 °F - 46.9 °F 89% 29.95 in 1.8 mi Calm Calm - N/A   Clear
2:24 AM 48.9 °F - 48.0 °F 97% 29.95 in 1.2 mi WNW 3.5 mph - N/A   Clear
2:33 AM 48.9 °F - 46.9 °F 93% 29.95 in 2.0 mi Calm Calm - N/A   Clear
2:46 AM 48.9 °F - 46.9 °F 93% 29.95 in 3.0 mi Calm Calm - N/A   Clear
2:53 AM 48.9 °F - 46.9 °F 93% 29.96 in 6.0 mi Calm Calm - N/A   Clear
3:07 AM 46.9 °F - 46.0 °F 97% 29.96 in 1.8 mi Calm Calm - N/A   Clear
3:10 AM 46.9 °F - 45.0 °F 93% 29.96 in 0.8 mi Calm Calm - N/A   Clear
3:19 AM 48.0 °F - 46.0 °F 93% 29.96 in 0.8 mi Calm Calm - N/A   Mist
3:22 AM 46.9 °F - 45.0 °F 93% 29.96 in 1.5 mi Calm Calm - N/A   Clear
3:24 AM 46.9 °F - 45.0 °F 93% 29.96 in 2.0 mi Calm Calm - N/A   Clear
3:35 AM 46.9 °F - 45.0 °F 93% 29.96 in 4.0 mi Calm Calm - N/A   Clear
3:53 AM 48.0 °F - 45.0 °F 89% 29.95 in 6.0 mi Calm Calm - N/A   Clear
4:20 AM 46.0 °F 44.8 °F 45.0 °F 96% 29.96 in 1.5 mi WSW 3.5 mph - N/A   Clear
4:22 AM 46.0 °F 44.8 °F 44.1 °F 93% 29.96 in 1.0 mi WSW 3.5 mph - N/A   Mist
4:31 AM 44.1 °F - 43.0 °F 96% 29.96 in 2.0 mi Calm Calm - N/A   Clear
4:41 AM 45.0 °F - 43.0 °F 93% 29.96 in 3.0 mi Calm Calm - N/A   Clear
4:53 AM 45.0 °F - 43.0 °F 93% 29.96 in 4.0 mi Calm Calm - N/A   Clear
5:53 AM 44.1 °F - 42.1 °F 93% 29.97 in 4.0 mi Calm Calm - N/A   Clear
6:53 AM 45.0 °F 43.5 °F 43.0 °F 93% 29.97 in 7.0 mi SW 3.5 mph - N/A   Clear
7:53 AM 48.0 °F - 46.0 °F 93% 29.99 in 8.0 mi Calm Calm - N/A   Clear
8:53 AM 55.9 °F - 46.9 °F 72% 30.01 in 10.0 mi WNW 3.5 mph - N/A   Clear
9:53 AM 60.1 °F - 48.0 °F 64% 30.02 in 10.0 mi WNW 3.5 mph - N/A   Clear
10:53 AM 66.0 °F - 51.1 °F 59% 30.01 in 10.0 mi NW 3.5 mph - N/A   Clear
11:53 AM 71.1 °F - 54.0 °F 55% 29.99 in 10.0 mi Calm Calm - N/A   Clear
12:53 PM 75.0 °F - 55.0 °F 50% 29.97 in 10.0 mi Calm Calm - 0.00 in Rain Light Rain
1:53 PM 78.1 °F - 55.9 °F 46% 29.96 in 10.0 mi Calm Calm - 0.00 in   Clear
2:53 PM 78.1 °F - 55.0 °F 45% 29.96 in 10.0 mi NNW 4.6 mph - N/A   Clear
3:53 PM 78.1 °F - 55.0 °F 45% 29.96 in 10.0 mi NNW 3.5 mph - N/A   Clear
4:53 PM 73.0 °F - 57.9 °F 59% 29.97 in 10.0 mi Calm Calm - N/A   Clear
5:53 PM 68.0 °F - 57.9 °F 70% 29.98 in 10.0 mi Calm Calm - N/A   Clear
6:53 PM 64.0 °F - 57.0 °F 78% 29.99 in 10.0 mi Calm Calm - N/A   Clear
7:53 PM 61.0 °F - 55.9 °F 83% 29.99 in 9.0 mi Calm Calm - N/A   Clear
8:53 PM 61.0 °F - 57.0 °F 87% 30.00 in 8.0 mi Calm Calm - N/A   Clear
9:53 PM 59.0 °F - 55.9 °F 90% 30.01 in 7.0 mi Calm Calm - N/A   Partly Cloudy
10:21 PM 59.0 °F - 57.0 °F 93% 30.01 in 1.5 mi Calm Calm - N/A   Partly Cloudy
10:30 PM 57.9 °F - 55.9 °F 93% 30.01 in 0.8 mi Calm Calm - N/A   Partly Cloudy
10:39 PM 59.0 °F - 55.9 °F 90% 30.01 in 1.0 mi Calm Calm - N/A   Clear
10:53 PM 59.0 °F - 57.0 °F 93% 30.01 in 2.5 mi Calm Calm - N/A   Clear
11:00 PM 59.0 °F - 57.0 °F 93% 30.01 in 4.0 mi Calm Calm - N/A   Clear
11:23 PM 57.0 °F - 55.9 °F 96% 30.02 in 1.5 mi Calm Calm - N/A   Partly Cloudy
11:32 PM 57.9 °F - 55.9 °F 93% 30.01 in 0.8 mi Calm Calm - N/A   Clear
11:36 PM 57.9 °F - 55.9 °F 93% 30.02 in 1.8 mi Calm Calm - N/A   Clear
11:38 PM 57.9 °F - 55.9 °F 93% 30.02 in 3.0 mi Calm Calm - N/A   Clear
11:45 PM 57.9 °F - 55.9 °F 93% 30.01 in 1.5 mi Calm Calm - N/A   Clear
11:53 PM 57.9 °F - 55.9 °F 93% 30.01 in 1.2 mi Calm Calm - N/A   Clear
11:57 PM 57.9 °F - 55.9 °F 93% 30.01 in 3.0 mi Calm Calm - N/A   Clear